Weather History for EINN - October, 2011

Change the Weather History Date:

Sunday, October 30, 2011

  Actual Average Record
Temperature  
Mean Temperature 56 °F -  
Max Temperature 61 °F 51 °F 63 °F (2014)
Min Temperature 52 °F 40 °F 37 °F (2008)
Degree Days  
Heating Degree Days 8    
Growing Degree Days 6 (Base 50)    
Moisture  
Dew Point 54 °F    
Average Humidity 90    
Maximum Humidity 100    
Minimum Humidity 82    
Precipitation  
Precipitation 0.08 in 0.12 in - ()
Sea Level Pressure  
Sea Level Pressure 29.79 in    
Wind  
Wind Speed 10 mph ()    
Max Wind Speed 16 mph    
Max Gust Speed -    
Visibility 6.6 miles    
Events Rain    
Averages and records for this station are not official NWS values.
T = Trace of Precipitation, MM = Missing Value Source: Averaged Metar Reports

Daily Weather History Graph

Daily Weather History Graph

Search for Another Location

Airport or City:

Trip Planner

Search our weather history database for the weather conditions in past years. The results will help you decide how hot, cold, wet, or windy it might be!

Date:

Astronomy

Oct. 30, 2011 Rise Set
Actual Time 7:28 AM GMT 5:09 PM GMT
Civil Twilight 6:52 AM GMT 5:45 PM GMT
Nautical Twilight 6:11 AM GMT 6:26 PM GMT
Astronomical Twilight 5:31 AM GMT 7:05 PM GMT
Moon 12:01 PM GMT (10/30) 7:58 PM GMT (10/30)
Length of Visible Light 10h 53m
Length of Day
9h 41m
Waxing Crescent, 18% of the Moon is Illuminated
Oct 30
Waxing Crescent
Nov 2
First Quarter
Nov 10
Full
Nov 18
Last Quarter
Nov 25
New

Hourly Weather History & Observations

Time (GMT) Temp. Dew Point Humidity Pressure Visibility Wind Dir Wind Speed Gust Speed Precip Events Conditions
12:00 AM 53.6 °F 50.0 °F 88% 29.83 in 6.2 mi SSW 10.4 mph - N/A   Mostly Cloudy
12:30 AM 55.4 °F 51.8 °F 88% 29.83 in 6.2 mi SW 11.5 mph - N/A   Mostly Cloudy
1:00 AM 55 °F 51 °F 82% 29.84 in 12 mi South 8.9 mph - -   Partly Cloudy
1:00 AM 55.4 °F 51.8 °F 88% 29.83 in 6.2 mi South 9.2 mph - N/A   Mostly Cloudy
1:30 AM 55.4 °F 51.8 °F 88% 29.83 in 6.2 mi South 6.9 mph - N/A   Mostly Cloudy
1:00 AM 53.6 °F 50.0 °F 88% 29.83 in 6.2 mi South 8.1 mph - N/A   Mostly Cloudy
1:30 AM 53.6 °F 50.0 °F 88% 29.83 in 6.2 mi SSW 6.9 mph - N/A   Mostly Cloudy
2:00 AM 53.6 °F 50.0 °F 88% 29.83 in 6.2 mi SSE 5.8 mph - N/A   Mostly Cloudy
2:30 AM 53.6 °F 50.0 °F 88% 29.83 in 6.2 mi South 8.1 mph - N/A   Mostly Cloudy
3:00 AM 53.6 °F 51.8 °F 94% 29.83 in 6.2 mi South 9.2 mph - N/A   Mostly Cloudy
3:30 AM 55.4 °F 51.8 °F 88% 29.83 in 6.2 mi South 10.4 mph - N/A   Mostly Cloudy
4:00 AM 53.6 °F 50.0 °F 88% 29.83 in 6.2 mi SSE 9.2 mph - N/A   Mostly Cloudy
4:30 AM 53.6 °F 50.0 °F 88% 29.83 in 6.2 mi SSE 9.2 mph - N/A   Mostly Cloudy
5:00 AM 53.6 °F 50.0 °F 88% 29.83 in 6.2 mi SSE 10.4 mph - N/A   Mostly Cloudy
5:30 AM 53.6 °F 50.0 °F 88% 29.83 in 6.2 mi SSE 8.1 mph - N/A   Mostly Cloudy
6:00 AM 53 °F 50 °F 87% 29.84 in 10 mi SSE 11.2 mph - -   Scattered Clouds
6:00 AM 53.6 °F 50.0 °F 88% 29.83 in 6.2 mi SSE 10.4 mph - N/A   Mostly Cloudy
6:30 AM 53.6 °F 50.0 °F 88% 29.83 in 6.2 mi SE 9.2 mph - N/A   Mostly Cloudy
7:00 AM 53.6 °F 50.0 °F 88% 29.83 in 6.2 mi SSE 11.5 mph - N/A   Mostly Cloudy
7:30 AM 53.6 °F 50.0 °F 88% 29.83 in 6.2 mi SSE 10.4 mph - N/A   Mostly Cloudy
8:00 AM 53.6 °F 50.0 °F 88% 29.83 in 6.2 mi SE 9.2 mph - N/A   Mostly Cloudy
8:30 AM 53.6 °F 51.8 °F 94% 29.83 in 6.2 mi ESE 9.2 mph - N/A   Mostly Cloudy
9:00 AM 55.4 °F 51.8 °F 88% 29.83 in 6.2 mi SE 10.4 mph - N/A   Mostly Cloudy
9:30 AM 57.2 °F 53.6 °F 88% 29.83 in 6.2 mi SSE 12.7 mph - N/A   Mostly Cloudy
10:00 AM 57.2 °F 53.6 °F 88% 29.83 in 6.2 mi SSE 13.8 mph - N/A   Mostly Cloudy
10:30 AM 57.2 °F 55.4 °F 94% 29.83 in 6.2 mi SSE 15.0 mph - N/A   Mostly Cloudy
11:00 AM 59.0 °F 55.4 °F 88% 29.80 in 6.2 mi SSE 16.1 mph - N/A   Mostly Cloudy
11:30 AM 59.0 °F 55.4 °F 88% 29.80 in 6.2 mi SSE 13.8 mph - N/A   Mostly Cloudy
12:00 PM 59 °F 56 °F 87% 29.82 in 22 mi SSE 11.2 mph - -   Partly Cloudy
12:00 PM 59.0 °F 55.4 °F 88% 29.80 in 6.2 mi SSE 11.5 mph - N/A   Mostly Cloudy
12:30 PM 60.8 °F 57.2 °F 88% 29.80 in 6.2 mi SE 8.1 mph - N/A   Mostly Cloudy
1:00 PM 60.8 °F 57.2 °F 88% 29.77 in 6.2 mi SSE 15.0 mph - N/A   Mostly Cloudy
1:30 PM 60.8 °F 57.2 °F 88% 29.77 in 6.2 mi SSE 16.1 mph - N/A   Mostly Cloudy
2:00 PM 60.8 °F 57.2 °F 88% 29.77 in 6.2 mi South 16.1 mph - N/A   Mostly Cloudy
2:30 PM 60.8 °F 57.2 °F 88% 29.77 in 6.2 mi SSE 11.5 mph - N/A   Mostly Cloudy
3:00 PM 60.8 °F 57.2 °F 88% 29.77 in 6.2 mi South 16.1 mph - N/A   Mostly Cloudy
3:30 PM 60.8 °F 57.2 °F 88% 29.77 in 6.2 mi SE 16.1 mph - N/A   Mostly Cloudy
4:00 PM 60.8 °F 57.2 °F 88% 29.74 in 6.2 mi SE 11.5 mph - N/A   Mostly Cloudy
4:30 PM 60.8 °F 57.2 °F 88% 29.77 in 6.2 mi SE 11.5 mph - N/A   Mostly Cloudy
5:00 PM 59.0 °F 57.2 °F 94% 29.77 in 5.0 mi SE 10.4 mph - N/A Rain Light Rain
5:30 PM 59.0 °F 59.0 °F 100% 29.74 in 6.2 mi SE 9.2 mph - N/A Rain Light Rain
6:00 PM 59 °F 58 °F 96% 29.76 in 16 mi SE 8.9 mph - - Rain Light Rain
6:00 PM 59.0 °F 59.0 °F 100% 29.74 in 6.2 mi SE 9.2 mph - N/A   Mostly Cloudy
6:30 PM 59.0 °F 59.0 °F 100% 29.74 in 6.2 mi SSE 11.5 mph - N/A   Mostly Cloudy
7:00 PM 59.0 °F 57.2 °F 94% 29.74 in 6.2 mi SE 8.1 mph - N/A   Scattered Clouds
7:30 PM 59.0 °F 57.2 °F 94% 29.74 in 6.2 mi SE 9.2 mph - N/A   Mostly Cloudy
8:00 PM 59.0 °F 57.2 °F 94% 29.71 in 6.2 mi SE 10.4 mph - N/A   Mostly Cloudy
8:30 PM 59.0 °F 57.2 °F 94% 29.71 in 6.2 mi SE 13.8 mph - N/A   Mostly Cloudy
9:00 PM 59.0 °F 57.2 °F 94% 29.71 in 6.2 mi ESE 11.5 mph - N/A   Mostly Cloudy
9:30 PM 59.0 °F 57.2 °F 94% 29.68 in 6.2 mi SE 13.8 mph - N/A   Mostly Cloudy
10:00 PM 59.0 °F 57.2 °F 94% 29.68 in 6.2 mi SE 15.0 mph - N/A   Overcast
10:30 PM 59.0 °F 57.2 °F 94% 29.65 in 6.2 mi SE 16.1 mph - N/A   Overcast